Tracking 21970 objects as of 25-Nov-2020
HD Live streaming from Space Station
objects crossing your sky now

IRIDIUM 33 DEB

Track IRIDIUM 33 DEB now!
10-day predictions


NORAD ID: 38023
Int'l Code: 1997-051YK
Perigee: 674.2 km
Apogee: 825.7 km
Inclination: 86.4 °
Period: 99.7 minutes
Semi major axis: 7120 km
RCS: 0.0057 m2 (small)
Launch date: September 14, 1997
Source: United States (US)
Launch site: TYURATAM MISSILE AND SPACE COMPLEX (TTMTR)

Note: This is SATELLITE DEBRIS
aabbcc
Your satellite tracking list
Your tracking list is empty




NASA's NSSDC Master Catalog

Two Line Element Set (TLE):
1 38023U 97051YK  20329.87236167 +.00005693 +00000-0 +15244-2 0  9995
2 38023 086.4131 169.8320 0106387 340.1943 019.5140 14.44764658440095
Source of the keplerian elements: AFSPC